Other Surface Observations
Issued by NWS

Home | Current Version | Previous Version | Text Only | Print | Product List | Glossary On
Versions: 1 2 3 4 5 6 7 8 9 10 11 12 13 14 15 16 17 18 19 20 21 22 23 24 25 26 27 28 29 30 31 32 33 34 35 36 37 38 39 40 41 42 43 44 45 46 47 48 49 50
000
SXUS52 KTAE 241618
OSOTAE
OSOTAE
North Florida/South Alabama/Southwest Georgia Weather Roundup
National Weather Service Tallahassee Florida
1100 AM EST FRI FEB 24 2017

Note: "fair" indicates few or no clouds below 12,000 feet with no
significant weather and/or obstructions to visibility.

!FLZ017-115-028-034-025-241700
...North Florida...

CITY           SKY/WX    TMP DP  RH WIND       PRES   REMARKS
TALLAHASSEE    MOSUNNY   74  62  66 E8        29.88F
APALACHICOLA   SUNNY     73  65  75 SE12      29.88S
PERRY          SUNNY     75  63  66 E8        29.88F
CROSS CITY     SUNNY     75  64  69 NE5       29.87S
JACKSONVILLE   PTSUNNY   73  66  78 N8        29.87F
$$

!FLZ112-006-005-002-011-241700
...Florida Panhandle...

CITY           SKY/WX    TMP DP  RH WIND       PRES   REMARKS
MARIANNA       SUNNY     72  62  71 VRB3      29.88F
BONIFAY        FAIR      73  62  68 VRB3      29.88
PANAMA CITY NW FAIR      73  61  65 CALM      29.87F
TYNDALL AFB    SUNNY     73  63  71 SE6       29.88F
TYND DRONE APT FAIR      73  64  73 NE7       29.88F
DE FUNIAK SPR  FAIR      71  59  64 SE7       29.89F
EGLIN AFB      MOSUNNY   71  62  73 SE10      29.88S
DESTIN         SUNNY     72  68  87 SE7       29.88S
HURLBURT       SUNNY     72  54  53 SE12      29.87R
CRESTVIEW      SUNNY     74  60  61 SE9       29.89F
PENSACOLA      SUNNY     70  63  78 SE8       29.87S
$$

!ALZ063-066-241700
...South Alabama...

CITY           SKY/WX    TMP DP  RH WIND       PRES   REMARKS
DOTHAN         SUNNY     72  62  71 E7        29.92F
OZARK CAIRNS   SUNNY     72  61  67 SE3       29.88F
FT RUCKER HELI SUNNY     71  60  66 SE6       29.88F
RUCKER HELI 3  FAIR      71  59  66 N5        29.88F
RUCKER HELI 2  FAIR      70  60  70 E7        29.88F
FLORALA APT    SUNNY     72  60  66 S8        29.89F
ANDALUSIA      SUNNY     75  59  57 S5        29.87F
TROY           SUNNY     73  58  59 S10       29.89F
EUFALA         FAIR      74  60  61 SE8       29.88F
MOBILE         PTSUNNY   68  63  84 S9        29.87S
$$

!GAZ120>161-241700
...Southwest and South Central Georgia...

CITY           SKY/WX    TMP DP  RH WIND       PRES   REMARKS
THOMASVILLE    FAIR      73  64  73 E3        29.90F
BAINBRIDGE     SUNNY     73  63  68 E3        29.90S
MOODY AFB      SUNNY     74  62  65 CALM      29.87S
VALDOSTA       SUNNY     74  63  68 VRB5      29.88F
MOULTRIE       SUNNY     73  63  68 CALM      29.90F
BLAKELY        SUNNY     73  61  64 CALM      29.90F
ALBANY         SUNNY     73  62  68 VRB3      29.92S
TIFTON         FAIR      71  63  75 CALM      29.90S
FITZGERALD     FAIR      72  64  76 CALM      29.93S
CORDELE        FAIR      74  62  64 SE8       29.92S
AMERICUS       FAIR      70  55  60 SE8       29.93S
HOMERVILLE     FAIR      73  64  73 SE9       29.89S
$$

!GMZ750-755-770-775-241700
...Coastal and Buoy Obs...

STATION/POSITION TIME  TEMP    WIND        PRES    VSBY  WAVE
                       AIR SEA DIR/SP/G                  HT/PER
                 (UTC) (F)     (DEG/KT/KT) (MB)    (MI)  (FT/S)
KEATON BEACH     1600   73      70/  7/  8 1011.0F
CEDAR KEY        1600   64     110/ 11/ 12 1011.7F
C TOWER          1600   66      60/  8/  8 1012.5R
APALACHICOLA BUO 1550   69 69   90/ 10/ 12 1011.0R         2/ 4
PANAMA CITY BUOY 1550   71 71              1011.8R         1/ 3
MOBILE BUOY      NOT AVBL
ORANGE BCH AL BU 1550   68 68  120/ 10/ 12 1011.2R         1
$$




USA.gov is the U.S. government's official web portal to all federal, state and local government web resources and services.